STARLINK-5552 (56339 NORAD) Tracking and Keplerian Element Data

This shows tracking and keplerian element data for the satellite.

Feedback or suggestion? Click here.




ElementValue
Catalog56339
NameSTARLINK-5552
Epoch Orbit179
Epoch Day126.91667824
Epoch Year2023
RAAN126.3743
Inclination97.6553
Eccentricity0.0001897
Argument of Perigee122.9185
Mean Anonmoly96.7196
Mean Motion15.68287849
Decay Rate-0.0082572
L11 56339U 23058Y 23126.91667824 -.00825720 00000+0 -81546-2 0 9992
L22 56339 97.6553 126.3743 0001897 122.9185 96.7196 15.68287849 1795



Live tracking and technical data element details for STARLINK-5552 (NORAD 56339). STARLINK-5552 can be tracked NOW for your location showing map with azimuth and elevation plus other details from your city location.







IsCatalogInMostPopularTable: catalog: 56339, numindb: 2
Update: records affected: 1



GetName: 56339 STARLINK-5552

Hit Count: updated at: Sat, 03 Jun 2023 18:45:34 GMT